TimeEDT,TemperatureF,Dew PointF,Humidity,Sea Level PressureIn,VisibilityMPH,Wind Direction,Wind SpeedMPH,Gust SpeedMPH,PrecipitationIn,Events,Conditions,WindDirDegrees,DateUTC
12:53 AM,75.0,68.0,79,30.05,8.0,Calm,Calm,-,N/A,,Clear,0,2013-04-02 04:53:00
1:53 AM,73.9,68.0,82,30.05,8.0,Calm,Calm,-,N/A,,Clear,0,2013-04-02 05:53:00
2:53 AM,73.0,66.9,81,30.04,7.0,NNW,3.5,-,N/A,,Clear,330,2013-04-02 06:53:00
3:53 AM,73.9,66.9,79,30.02,7.0,Calm,Calm,-,N/A,,Clear,0,2013-04-02 07:53:00
4:53 AM,73.0,66.9,81,30.01,8.0,Calm,Calm,-,N/A,,Clear,0,2013-04-02 08:53:00
5:53 AM,73.0,66.0,79,30.01,10.0,Calm,Calm,-,N/A,,Clear,0,2013-04-02 09:53:00
6:53 AM,73.0,66.0,79,30.04,10.0,North,3.5,-,N/A,,Clear,10,2013-04-02 10:53:00
7:53 AM,73.9,66.0,76,30.06,10.0,NNE,3.5,-,N/A,,Clear,20,2013-04-02 11:53:00
8:53 AM,77.0,68.0,74,30.09,10.0,North,3.5,-,N/A,,Clear,360,2013-04-02 12:53:00
9:53 AM,79.0,64.9,62,30.10,10.0,NNE,3.5,-,N/A,,Clear,20,2013-04-02 13:53:00
10:53 AM,81.0,68.0,65,30.10,10.0,North,6.9,-,N/A,,Clear,350,2013-04-02 14:53:00
11:53 AM,81.0,64.9,58,30.10,10.0,NNE,6.9,-,N/A,,Clear,30,2013-04-02 15:53:00
12:53 PM,82.0,64.0,54,30.09,10.0,NNE,8.1,-,N/A,,Clear,30,2013-04-02 16:53:00
1:53 PM,84.0,64.0,51,30.07,8.0,NNW,5.8,-,N/A,,Clear,340,2013-04-02 17:53:00
2:53 PM,82.9,64.0,53,30.05,10.0,NNW,5.8,-,N/A,,Clear,330,2013-04-02 18:53:00
3:53 PM,82.0,64.9,56,30.04,10.0,Variable,4.6,-,N/A,,Clear,0,2013-04-02 19:53:00
4:53 PM,82.9,64.0,53,30.02,10.0,NW,4.6,-,N/A,,Clear,320,2013-04-02 20:53:00
5:53 PM,82.0,63.0,52,30.03,10.0,Calm,Calm,-,N/A,,Clear,0,2013-04-02 21:53:00
6:53 PM,79.0,63.0,58,30.03,10.0,NW,3.5,-,N/A,,Clear,320,2013-04-02 22:53:00
7:53 PM,75.9,64.0,67,30.03,10.0,Calm,Calm,-,N/A,,Clear,0,2013-04-02 23:53:00
8:53 PM,75.9,64.9,69,30.05,10.0,North,4.6,-,N/A,,Clear,360,2013-04-03 00:53:00
9:53 PM,75.9,64.9,69,30.06,10.0,NNE,4.6,-,N/A,,Clear,30,2013-04-03 01:53:00
10:53 PM,75.0,64.9,71,30.08,10.0,Calm,Calm,-,N/A,,Clear,0,2013-04-03 02:53:00
11:53 PM,75.9,64.9,69,30.07,10.0,NE,3.5,-,N/A,,Clear,50,2013-04-03 03:53:00